EW0349 Weather Reports


time (UTC)temp
F
wind
direction
speed
knots
gust
knots
rain 1hr
in
rain 24hr
in
rain mn
in
humidity
%
barometer
mb
20260510121548 49 233 0.0 2.6 0.00 0.00 0.00 18 1017.7
20260510120046 49 288 0.0 1.7 0.00 0.00 0.00 20 1017.5
20260510114544 48 288 0.0 0.9 0.00 0.00 0.00 24 1017.5
20260510113044 49 288 0.0 0.0 0.00 0.00 0.00 28 1017.2
20260510111551 49 288 0.0 0.0 0.00 0.00 0.00 32 1017.3
20260510110037 49 288 0.0 0.0 0.00 0.00 0.00 34 1017.4
20260510104542 50 288 0.0 0.0 0.00 0.00 0.00 40 1016.9
20260510103031 50 288 0.0 0.9 0.00 0.00 0.00 43 1016.8
20260510101528 51 288 0.0 0.0 0.00 0.00 0.00 47 1016.7
20260510100024 52 288 0.0 0.9 0.00 0.00 0.00 48 1016.4
20260510094522 52 288 0.0 0.9 0.00 0.00 0.00 49 1016.1
20260510093019 52 288 0.0 2.6 0.00 0.00 0.00 51 1016.1
20260510091517 53 285 0.0 2.6 0.00 0.00 0.00 56 1016.1
20260510090017 53 287 0.0 2.6 0.00 0.00 0.00 60 1016.0
20260510084511 53 291 0.0 1.7 0.00 0.00 0.00 65 1016.1
20260510083009 54 291 0.0 0.0 0.00 0.00 0.00 68 1015.7
20260510081520 55 291 0.0 1.7 0.00 0.00 0.00 69 1015.8
20260510080003 56 291 0.0 0.9 0.00 0.00 0.00 70 1015.8
20260510074601 56 291 0.0 0.9 0.00 0.00 0.00 70 1015.8
20260510073104 57 292 0.0 1.7 0.00 0.00 0.00 70 1015.8
20260510071558 58 292 0.0 0.9 0.00 0.00 0.00 70 1015.7
20260510070052 59 292 0.0 0.9 0.00 0.00 0.00 69 1015.7
20260510064555 59 286 0.0 3.5 0.00 0.00 0.00 68 1015.6
20260510063046 60 269 0.0 1.7 0.00 0.00 0.00 66 1015.6
20260510061545 60 265 0.9 3.5 0.00 0.00 0.00 66 1015.5
20260510060042 60 241 0.0 2.6 0.00 0.00 0.00 67 1015.5
20260510054530 61 225 0.9 3.5 0.00 0.00 0.00 66 1015.5
20260510053038 62 263 0.0 1.7 0.00 0.00 0.00 64 1015.4
20260510051524 62 269 0.0 3.5 0.00 0.00 0.00 62 1015.1
20260510050016 63 284 0.0 2.6 0.00 0.00 0.00 62 1015.1
20260510044532 63 284 0.0 2.6 0.00 0.00 0.00 62 1015.1
20260510043008 64 283 0.0 2.6 0.00 0.00 0.00 62 1014.9
20260510041503 65 275 0.9 5.2 0.00 0.00 0.00 60 1014.8
20260510040058 66 283 0.0 3.5 0.00 0.00 0.00 59 1014.6
20260510034557 66 290 0.9 2.6 0.00 0.00 0.00 57 1014.4
20260510033106 66 76 0.0 2.6 0.00 0.00 0.00 56 1014.4
20260510031546 68 77 0.0 0.9 0.00 0.00 0.00 57 1014.2
20260510030046 69 77 0.0 1.7 0.00 0.00 0.00 53 1014.2
20260510024537 71 77 0.0 1.7 0.00 0.00 0.00 50 1014.1
20260510023033 72 77 0.0 0.0 0.00 0.00 0.00 46 1014.1
20260510021532 73 77 0.0 0.0 0.00 0.00 0.00 42 1014.1
20260510020026 73 77 0.0 0.9 0.00 0.00 0.00 40 1014.1
20260510014521 73 77 0.0 1.7 0.00 0.00 0.00 40 1014.2
20260510013016 74 78 0.0 1.7 0.00 0.00 0.00 40 1014.3
20260510011515 74 78 0.0 1.7 0.00 0.00 0.00 43 1014.4
20260510010006 74 78 0.9 2.6 0.00 0.00 0.00 43 1014.5
20260510004501 74 88 0.0 1.7 0.00 0.00 0.00 43 1014.6
20260510003103 74 89 0.0 2.6 0.00 0.00 0.00 43 1014.7
20260510001556 75 86 0.0 2.6 0.00 0.00 0.00 41 1014.7
20260510000054 76 65 0.9 4.3 0.00 0.00 0.00 42 1014.9
20260509234555 77 89 0.0 3.5 0.00 0.00 0.00 38 1014.9
20260509233043 75 71 0.0 2.6 0.00 0.00 0.00 39 1015.1
20260509231537 75 59 0.9 3.5 0.00 0.00 0.00 42 1015.3
20260509230031 75 310 0.0 4.3 0.00 0.00 0.00 41 1015.5
20260509224526 75 316 0.9 3.5 0.00 0.00 0.00 42 1015.7
20260509223023 75 217 0.9 4.3 0.00 0.00 0.00 42 1016.0
20260509221519 74 19 1.7 5.2 0.00 0.00 0.00 46 1016.1
20260509220013 73 57 0.9 4.3 0.00 0.00 0.00 48 1016.5
20260509214509 72 26 0.9 5.2 0.00 0.00 0.00 51 1016.8
20260509213005 73 50 0.9 2.6 0.00 0.00 0.00 48 1017.0
20260509211501 72 82 0.9 3.5 0.00 0.00 0.00 50 1017.1
20260509210056 71 22 1.7 3.5 0.00 0.00 0.00 54 1017.2
20260509204555 69 32 0.9 4.3 0.00 0.00 0.00 57 1017.3
20260509203047 69 103 0.9 4.3 0.00 0.00 0.00 53 1017.5
20260509201553 69 244 1.7 4.3 0.00 0.00 0.00 58 1017.7
20260509200050 69 302 0.9 6.1 0.00 0.00 0.00 58 1017.7
20260509194534 69 14 1.7 6.1 0.00 0.00 0.00 58 1018.0
20260509193036 67 319 0.9 2.6 0.00 0.00 0.00 60 1018.1
20260509191526 67 22 2.6 7.0 0.00 0.00 0.00 61 1018.3
20260509190023 67 24 1.7 5.2 0.00 0.00 0.00 59 1018.6
20260509184520 66 277 0.9 6.1 0.00 0.00 0.00 61 1018.7
20260509183012 65 305 0.9 4.3 0.00 0.00 0.00 60 1018.8
20260509181507 64 42 0.9 6.1 0.00 0.00 0.00 61 1019.0
20260509180002 63 17 0.0 3.5 0.00 0.00 0.00 62 1019.0
20260509174602 62 83 1.7 4.3 0.00 0.00 0.00 62 1019.2
20260509173106 61 21 0.9 5.2 0.00 0.00 0.00 63 1019.2
20260509171612 60 17 0.9 3.5 0.00 0.00 0.00 62 1019.3
20260509170046 59 120 1.7 4.3 0.00 0.00 0.00 63 1019.6
20260509164541 58 20 0.0 3.5 0.00 0.00 0.00 62 1019.7
20260509163037 57 57 0.9 2.6 0.00 0.00 0.00 62 1020.0
20260509161535 56 42 0.9 2.6 0.00 0.00 0.00 60 1020.2
20260509160028 56 34 0.0 2.6 0.00 0.00 0.00 59 1020.2
20260509154524 55 66 0.0 2.6 0.00 0.00 0.00 54 1020.3
20260509153021 54 69 0.9 2.6 0.00 0.00 0.00 49 1020.5
20260509151514 53 61 0.9 3.5 0.00 0.00 0.00 45 1020.8
20260509150010 52 360 0.0 4.3 0.00 0.00 0.00 37 1020.9
20260509144506 51 293 0.9 2.6 0.00 0.00 0.00 19 1020.9
20260509143003 49 282 0.0 1.7 0.00 0.00 0.00 100 1020.6
20260509141557 47 281 0.0 0.0 0.00 0.00 0.00 100 1020.7
20260509140052 45 281 0.0 0.9 0.00 0.00 0.00 100 1020.7
20260509134549 44 282 0.0 0.0 0.00 0.00 0.00 4 1020.7
20260509133047 43 282 0.0 0.9 0.00 0.00 0.00 11 1020.7
20260509131542 43 282 0.0 0.9 0.00 0.00 0.00 14 1020.6
20260509130037 43 281 0.0 0.0 0.00 0.00 0.00 16 1020.6
20260509124547 43 281 0.0 0.9 0.00 0.00 0.00 17 1020.8
20260509123031 44 281 0.0 0.9 0.00 0.00 0.00 18 1020.8